Tracking 30743 objects as of 21-Jun-2025
HD Live streaming from Space Station
objects crossing your sky now

STARLINK-31911

Track STARLINK-31911 now!
10-day predictions
STARLINK-31911 is classified as:


NORAD ID: 60587
Int'l Code: 2024-150E
Perigee: 481.6 km
Apogee: 482.9 km
Inclination: 53.2 °
Period: 94.1 minutes
Semi major axis: 6853 km
RCS: Unknown
Launch date: August 20, 2024
Source: United States (US)
Launch site: AIR FORCE EASTERN TEST RANGE (AFETR)
Your satellite tracking list
Your tracking list is empty




NASA's NSSDC Master Catalog

Two Line Element Set (TLE):
1 60587U 24150E   25171.47786181 -.00011332  00000-0 -37067-3 0  9994
2 60587  53.1606  85.1112 0000935 132.1820 227.9260 15.30234429 47812
Source of the keplerian elements: AFSPC